This demonstration page uses our WeatherBlox Daily Observations layout. Learn more.

Left ArrowRight Arrow

Hourly Observations for August 7, 2022

Temp ( °F °C ) Dew Point ( °F °C ) Humidity (%) Winds ( mph kmh ) Pressure ( in mb ) Visibility ( mi km ) Precip ( " mm )
12:52 am 00:52 Mostly Cloudy 85 29.4 72 22.2 65 65 S 10 17 29.88 1012 10 16 0.00 0.00
1:52 am 01:52 Mostly Cloudy 83 28.3 72 22.2 70 70 SSE 7 11 29.90 1012 10 16 0.00 0.00
2:52 am 02:52 Partly Cloudy 82 27.8 72 22.2 72 72 SSE 10 17 29.88 1012 10 16 0.00 0.00
3:52 am 03:52 Partly Cloudy 83 28.3 72 22.2 70 70 S 5 7 29.89 1012 10 16 0.00 0.00
4:52 am 04:52 Partly Cloudy 80 26.7 72 22.2 76 76 Calm 29.90 1012 10 16 0.00 0.00
5:52 am 05:52 Mostly Cloudy 77 25 73 22.8 88 88 NNE 8 13 29.90 1013 10 16 0.00 0.00
6:52 am 06:52 Cloudy 76 24.4 74 23.3 94 94 Calm 29.92 1013 10 16 0.00 0.00
7:52 am 07:52 Mostly Cloudy 80 26.7 71 21.7 74 74 ESE 9 15 29.93 1013 10 16 0.00 0.00
8:52 am 08:52 Mostly Cloudy 83 28.3 71 21.7 67 67 SSE 14 22 29.92 1013 10 16 0.00 0.00
9:52 am 09:52 Mostly Cloudy 83 28.3 71 21.7 67 67 SSE 12 19 29.92 1013 10 16 0.00 0.00
10:52 am 10:52 Mostly Cloudy 85 29.4 71 21.7 63 63 SSE 8 13 29.93 1013 10 16 0.00 0.00
11:52 am 11:52 Mostly Cloudy 88 31.1 71 21.7 57 57 S 10 17 29.91 1013 10 16 0.00 0.00
12:52 pm 12:52 Mostly Cloudy 92 33.3 72 22.2 52 52 S 10 17 29.89 1012 10 16 0.00 0.00
1:52 pm 13:52 Mostly Cloudy 94 34.4 72 22.2 49 49 S 12 19 29.88 1012 10 16 0.00 0.00
2:52 pm 14:52 Mostly Cloudy 96 35.6 70 21.1 43 43 S 13 20 29.86 1011 10 16 0.00 0.00
3:52 pm 15:52 Mostly Cloudy 98 36.7 71 21.7 42 42 SSW 12 19 29.86 1011 10 16 0.00 0.00
4:35 pm 16:35 Mostly Cloudy 95 35 72 22.2 47 47 W 21 33 29.83 1010 10 16 0.00 0.00
4:52 pm 16:52 Mostly Cloudy 93 33.9 71 21.7 49 49 W 15 24 29.87 1011 10 16 0.00 0.00
5:52 pm 17:52 Mostly Cloudy 92 33.3 74 23.3 56 56 NW 10 17 29.87 1011 10 16 0.00 0.00
6:52 pm 18:52 Mostly Cloudy 87 30.6 75 23.9 67 67 NNW 14 22 29.89 1012 10 16 0.00 0.00
7:52 pm 19:52 Mostly Cloudy 82 27.8 74 23.3 77 77 NNW 17 28 29.90 1013 10 16 0.00 0.00
8:52 pm 20:52 Mostly Cloudy 76 24.4 70 21.1 82 82 NNW 16 26 29.93 1014 10 16 0.00 0.00
9:11 pm 21:11 Cloudy 75 23.9 70 21.1 84 84 NW 13 20 29.94 1014 10 16 0.00 0.00
9:52 pm 21:52 Cloudy 74 23.3 68 20 82 82 NNW 18 30 29.98 1015 10 16 0.00 0.00
10:24 pm 22:24 Cloudy with Thunderstorms 73 22.8 68 20 84 84 NNW 14 22 29.98 1015 10 16 0.00 0.00
10:52 pm 22:52 Cloudy with Thunderstorms 71 21.7 69 20.6 94 94 N 17 28 29.98 1015 4 6 0.03 0.76
11:52 pm 23:52 Cloudy with Thunderstorms 70 21.1 69 20.6 97 97 NNW 13 20 29.97 1015 7 11 0.10 2.54

Powered by AerisWeather